Westfield, MA

11:48 AM EDT on May 26, 2017 (GMT -0400)
Barnes Municipal

Weather History for KBAF - April, 2013

Change the Weather History Date:

Tuesday, April 23, 2013

  Actual Average Record
Temperature  
Mean Temperature 41 °F -  
Max Temperature 45 °F 60 °F 88 °F (2007)
Min Temperature 37 °F 36 °F 33 °F (2002)
Degree Days  
Heating Degree Days 24    
Moisture  
Dew Point 32 °F    
Average Humidity 71    
Maximum Humidity 82    
Minimum Humidity 65    
Precipitation  
Precipitation 0.00 in - - ()
Sea Level Pressure  
Sea Level Pressure 30.39 in    
Wind  
Wind Speed 9 mph (NNE)    
Max Wind Speed 15 mph    
Max Gust Speed 22 mph    
Visibility 10 miles    
Events      
Averages and records for this station are not official NWS values.
T = Trace of Precipitation, MM = Missing Value Source: NWS Daily Summary

Daily Weather History Graph

Daily Weather History Graph

Search for Another Location

Airport or City:

Trip Planner

Search our weather history database for the weather conditions in past years. The results will help you decide how hot, cold, wet, or windy it might be!

Date:

Astronomy

Apr. 23, 2013 Rise Set
Actual Time 5:57 AM EDT 7:41 PM EDT
Civil Twilight 5:27 AM EDT 8:11 PM EDT
Nautical Twilight 4:51 AM EDT 8:47 PM EDT
Astronomical Twilight 4:12 AM EDT 9:26 PM EDT
Moon 5:31 PM EDT (4/23) 4:26 AM EDT (4/23)
Length of Visible Light 14h 43m
Length of Day
13h 43m
Waxing Gibbous, 94% of the Moon is Illuminated
Apr 23
Waxing Gibbous
Apr 25
Full
May 2
Last Quarter
May 9
New
May 18
First Quarter

Hourly Weather History & Observations

Time (EDT) Temp. Windchill Dew Point Humidity Pressure Visibility Wind Dir Wind Speed Gust Speed Precip Events Conditions
12:53 AM 39.0 °F 33.4 °F 28.9 °F 67% 30.57 in 10.0 mi NE 8.1 mph - N/A   Partly Cloudy
1:20 AM 39.2 °F 34.2 °F 28.4 °F 65% 30.54 in 10.0 mi NNE 6.9 mph - N/A   Mostly Cloudy
1:53 AM 39.0 °F 33.4 °F 28.9 °F 67% 30.55 in 10.0 mi NNE 8.1 mph - N/A   Overcast
2:53 AM 39.0 °F 34.0 °F 28.9 °F 67% 30.52 in 10.0 mi North 6.9 mph - N/A   Overcast
3:53 AM 37.9 °F 31.5 °F 28.0 °F 68% 30.49 in 10.0 mi NNE 9.2 mph - N/A   Mostly Cloudy
4:04 AM 37.4 °F 31.4 °F 28.4 °F 70% 30.48 in 10.0 mi North 8.1 mph - N/A   Mostly Cloudy
4:53 AM 37.9 °F 32.7 °F 28.9 °F 70% 30.49 in 10.0 mi North 6.9 mph - N/A   Overcast
5:53 AM 37.9 °F 32.1 °F 28.9 °F 70% 30.47 in 10.0 mi North 8.1 mph - N/A   Overcast
6:03 AM 37.4 °F 30.8 °F 28.4 °F 70% 30.46 in 10.0 mi North 9.2 mph - N/A   Overcast
6:53 AM 39.0 °F 32.3 °F 28.9 °F 67% 30.47 in 10.0 mi NNE 10.4 mph - N/A   Overcast
7:53 AM 39.0 °F 32.8 °F 28.9 °F 67% 30.47 in 10.0 mi NNE 9.2 mph - N/A   Overcast
8:53 AM 39.9 °F 32.9 °F 30.0 °F 68% 30.46 in 10.0 mi NNE 11.5 mph - N/A   Overcast
9:53 AM 41.0 °F 34.3 °F 30.9 °F 67% 30.44 in 10.0 mi NNE 11.5 mph - N/A   Overcast
10:53 AM 41.0 °F 34.7 °F 32.0 °F 70% 30.43 in 10.0 mi North 10.4 mph - N/A   Overcast
11:53 AM 42.1 °F 37.1 °F 34.0 °F 73% 30.42 in 10.0 mi NNE 8.1 mph - N/A   Overcast
12:53 PM 43.0 °F 37.2 °F 35.1 °F 74% 30.38 in 10.0 mi NNE 10.4 mph - N/A   Overcast
1:53 PM 44.1 °F 39.5 °F 35.1 °F 71% 30.35 in 10.0 mi NE 8.1 mph - N/A   Overcast
2:53 PM 44.1 °F 38.6 °F 36.0 °F 73% 30.33 in 10.0 mi NE 10.4 mph - N/A   Overcast
3:53 PM 45.0 °F 39.3 °F 36.0 °F 71% 30.30 in 10.0 mi NNE 11.5 mph 21.9 mph N/A   Overcast
4:53 PM 45.0 °F 40.1 °F 36.0 °F 71% 30.30 in 10.0 mi NNE 9.2 mph - N/A   Overcast
5:53 PM 44.1 °F 38.1 °F 36.0 °F 73% 30.27 in 10.0 mi NNE 11.5 mph - N/A   Overcast
6:53 PM 44.1 °F 39.5 °F 36.0 °F 73% 30.26 in 10.0 mi NNE 8.1 mph - N/A   Overcast
7:53 PM 43.0 °F 37.2 °F 36.0 °F 76% 30.23 in 10.0 mi North 10.4 mph - N/A   Overcast
8:53 PM 42.1 °F 35.2 °F 36.0 °F 79% 30.24 in 10.0 mi North 12.7 mph - N/A   Overcast
9:53 PM 42.1 °F 36.1 °F 36.0 °F 79% 30.20 in 10.0 mi North 10.4 mph 21.9 mph N/A   Overcast
10:53 PM 42.1 °F 34.9 °F 36.0 °F 79% 30.17 in 10.0 mi North 13.8 mph - N/A   Overcast
11:53 PM 42.1 °F 34.5 °F 37.0 °F 82% 30.14 in 10.0 mi North 15.0 mph - N/A   Overcast